Theta_e
307 311 311 310 314 314 315 318 321 320 321 320 320 322 323 322 322 321 319 317 318 323 324 326 334 337 339 338 338 337 336 335 337 337 338 338 337 335 338 337 336 336 336 336
310 312 310 311 311 314 317 318 319 322 322 320 321 320 324 324 323 322 321 318 316 318 318 317 321 332 336 339 339 338 338 338 338 337 332 335 337 337 339 338 337 337 336 336
312 312 311 310 312 318 318 320 322 323 322 320 320 320 320 321 322 319 319 317 315 316 316 317 315 325 333 336 338 339 339 339 339 339 338 339 338 337 338 336 335 336 337 336
315 313 312 311 318 316 319 319 322 323 324 328 322 324 321 319 320 319 317 316 314 314 314 314 315 315 322 333 336 337 337 337 337 338 338 339 338 337 338 336 336 337 336 334
316 316 314 317 319 317 319 319 321 321 321 322 324 322 320 315 318 316 314 313 313 312 312 314 314 316 318 319 321 334 337 336 336 337 337 337 337 337 337 335 335 335 334 333
315 313 315 316 316 318 318 319 319 319 320 322 324 322 320 313 315 316 314 311 313 313 312 311 314 316 317 318 318 319 333 336 335 335 337 337 336 336 335 334 333 331 329 329
315 314 314 314 317 318 318 318 323 322 322 322 318 321 318 315 313 310 314 311 310 311 311 310 310 311 315 315 317 317 326 333 335 335 335 334 333 333 332 331 331 325 324 324
315 311 316 314 317 319 317 316 318 322 319 315 316 321 317 310 308 309 311 311 309 309 308 308 308 310 313 314 315 316 323 328 331 331 330 331 331 331 330 329 327 323 320 318
310 316 313 315 315 316 316 318 311 311 309 311 314 310 310 310 310 309 309 308 308 308 307 309 309 309 312 314 315 315 320 321 322 324 324 324 325 325 326 326 325 324 320 315
311 314 311 315 314 315 314 311 314 312 318 314 311 312 310 312 312 310 309 307 306 305 307 305 307 309 310 312 313 315 317 318 318 318 319 319 320 319 319 319 315 315 314 313
309 308 312 312 314 317 316 314 311 310 309 311 314 312 306 307 309 309 309 310 309 308 306 305 305 310 311 313 314 315 315 315 315 315 315 315 315 314 315 315 315 313 312 310
310 309 308 315 313 313 314 317 309 308 311 304 307 309 305 306 307 309 310 309 308 308 307 305 305 308 311 312 313 315 315 314 314 314 314 314 313 312 312 312 311 313 315 314
310 307 304 307 308 310 314 314 312 308 306 307 308 308 306 308 309 309 310 309 307 308 307 306 306 307 309 311 313 314 314 314 314 314 313 312 311 310 309 308 309 309 308 307
309 307 306 306 309 309 314 314 314 310 305 311 309 311 310 309 309 306 307 308 307 305 306 306 305 306 309 311 312 313 313 313 314 313 312 311 309 309 308 307 306 306 305 305
308 309 303 309 310 310 313 314 313 306 313 312 314 312 311 310 309 306 306 307 306 305 305 305 306 305 307 309 311 312 312 312 312 311 311 310 309 307 306 306 306 305 304 302
306 307 304 307 308 310 311 310 310 310 312 311 311 312 311 310 307 307 307 307 307 307 305 304 305 306 307 308 310 310 311 311 311 310 310 309 307 305 306 306 304 302 301 300
309 307 306 308 306 307 307 309 308 309 309 311 312 309 309 308 309 308 308 307 306 306 305 304 304 303 305 307 309 310 310 310 310 309 309 307 306 306 305 303 302 301 300 300
309 308 306 305 305 304 305 303 305 308 307 307 306 306 305 306 306 306 306 307 306 305 304 304 303 304 305 306 306 309 309 309 309 308 307 306 305 304 303 302 301 300 299 299
305 306 307 308 306 304 308 307 307 307 306 308 308 308 309 308 306 305 305 304 305 303 302 303 304 304 304 305 307 306 308 308 307 307 306 306 304 303 302 302 301 300 299 298
304 303 307 304 309 310 304 308 306 304 306 304 308 308 308 307 307 304 304 304 303 303 304 303 304 304 304 306 306 306 306 306 306 307 306 306 305 304 303 302 300 299 298 298
306 305 306 307 307 307 305 305 304 308 303 302 304 303 304 306 305 304 303 302 303 304 304 304 303 303 304 305 305 305 305 304 308 307 306 305 304 304 303 302 300 299 298 297
306 305 306 304 307 306 303 305 306 302 303 303 303 303 303 303 303 303 303 304 303 302 303 304 303 303 304 305 304 304 304 307 305 306 306 305 304 303 302 301 300 298 297 296
307 304 305 304 305 304 305 303 304 302 303 302 302 302 302 303 303 303 303 303 303 304 303 303 302 302 303 304 304 304 304 304 304 305 304 304 303 302 302 300 299 297 296 295
305 302 303 305 303 305 303 304 302 301 301 300 301 301 302 303 304 304 304 305 304 305 303 303 302 301 301 303 303 304 303 303 304 303 303 302 302 300 300 299 298 297 295 294
302 303 303 303 303 301 303 301 299 298 297 297 297 299 299 300 301 302 304 304 304 304 304 302 301 301 301 302 302 303 303 303 303 303 302 301 300 299 298 298 298 297 296 296
300 303 302 302 302 302 300 298 297 296 295 296 298 298 297 297 298 299 301 303 303 304 304 301 301 301 301 301 302 301 302 302 302 301 300 300 300 299 298 297 296 296 295 295
Wind_Speed
3 3 6 5 4 3 13 5 10 4 11 10 7 14 3 5 5 4 4 4 7 6 3 8 14 16 19 27 32 36 34 35 36 37 38 28 31 30 26 23 24 26 22 19
3 2 7 7 2 3 12 9 12 14 16 6 5 7 4 5 3 2 3 5 6 5 5 4 6 13 21 23 28 31 36 39 41 38 34 31 31 26 25 23 22 25 27 23
3 6 9 5 3 8 4 13 8 14 7 5 7 4 5 5 7 7 5 7 5 8 7 6 6 10 15 20 23 27 29 32 34 36 34 28 25 25 27 24 22 24 23 23
3 7 9 5 7 8 4 4 17 19 4 3 4 1 7 7 9 10 9 7 9 9 6 6 7 12 17 22 24 27 26 28 29 32 30 29 27 22 30 31 25 24 23 22
2 8 6 6 3 1 3 14 14 13 7 3 3 2 4 3 14 11 9 10 10 10 9 9 10 19 22 22 21 21 24 24 25 28 28 29 28 27 24 28 30 25 21 19
5 1 4 4 3 7 9 18 13 6 3 1 5 2 3 5 7 6 15 9 9 9 9 8 16 20 22 21 19 18 19 22 23 25 27 27 28 26 24 23 21 19 15 12
7 6 5 4 8 11 14 5 3 2 1 3 6 4 8 7 8 7 9 10 10 8 6 7 8 12 20 23 23 20 19 21 22 24 26 27 26 24 20 18 19 18 14 12
5 5 9 9 3 4 3 1 3 4 4 2 3 4 5 3 7 5 4 2 4 6 4 6 7 14 19 23 25 22 20 19 19 17 17 18 21 23 19 16 15 13 8 6
3 4 5 7 4 3 3 5 0 5 2 4 3 6 8 4 5 5 7 7 7 7 4 5 7 12 22 21 25 26 22 16 14 13 12 12 13 16 21 17 16 15 9 10
2 5 4 4 3 5 2 3 1 2 3 1 4 4 4 2 2 3 4 6 6 5 6 5 6 7 8 13 16 21 19 16 14 12 12 12 14 16 16 17 16 15 14 10
3 4 3 2 4 3 4 3 5 4 3 3 2 5 3 6 3 2 1 3 3 4 4 5 6 5 1 5 8 13 13 12 13 13 13 13 16 19 20 21 19 15 11 8
1 4 3 1 3 1 0 3 3 4 2 2 3 4 3 4 2 2 3 5 6 5 4 5 6 7 4 1 5 9 10 12 13 14 15 18 19 19 19 21 22 18 18 14
1 2 3 6 5 5 3 2 4 4 3 2 4 4 3 5 5 2 2 4 4 5 7 6 6 7 5 3 5 9 11 13 15 17 17 17 17 18 18 15 13 11 11 12
3 3 4 5 3 3 2 0 1 4 3 2 4 4 4 3 2 4 4 4 6 6 6 5 6 7 7 6 9 12 15 18 20 21 21 20 20 18 14 11 8 8 9 9
3 3 3 2 1 2 1 2 4 4 4 4 2 5 5 6 5 6 6 6 7 8 8 7 6 5 8 10 12 15 18 19 21 23 22 21 18 16 16 13 10 9 9 10
3 1 2 4 6 1 2 4 4 4 4 6 5 9 7 9 4 5 8 7 7 7 6 6 6 7 11 15 18 18 20 23 23 24 23 21 20 20 17 14 12 11 11 11
3 3 2 2 4 4 3 2 3 2 2 3 4 7 3 6 7 7 7 7 6 6 7 7 7 7 12 16 21 23 25 22 24 24 23 22 22 20 17 16 15 14 12 10
3 3 2 1 4 2 5 3 4 5 4 5 6 6 7 6 6 7 4 3 5 5 6 7 8 13 18 17 18 21 24 24 26 25 25 24 23 21 20 18 17 15 13 11
2 3 3 2 1 5 1 1 1 2 5 3 3 5 4 5 5 6 5 5 6 6 7 13 16 19 21 21 20 18 21 26 27 28 27 25 24 23 22 21 18 16 13 11
4 5 3 1 2 3 4 2 2 2 4 3 3 5 6 5 4 4 4 4 8 13 14 15 15 16 18 22 16 16 23 26 29 32 31 27 26 26 25 23 20 16 13 9
2 3 3 2 2 6 4 4 0 1 4 7 5 6 7 5 5 7 9 7 9 14 15 13 14 15 16 17 14 17 21 26 34 30 28 27 27 26 24 21 19 16 12 9
5 5 3 2 2 6 3 2 0 3 4 4 6 5 7 8 11 10 12 13 11 10 16 14 13 13 14 14 12 18 23 26 25 26 27 27 26 25 23 21 19 16 13 11
1 4 4 6 4 2 2 3 3 2 4 5 7 7 7 11 10 10 9 12 13 20 16 15 13 13 12 11 9 13 17 16 18 21 25 25 24 24 22 22 20 17 15 12
1 2 2 1 3 3 4 0 4 5 4 7 9 11 12 15 14 14 13 13 12 20 20 19 13 11 11 8 5 7 10 15 20 23 21 22 23 22 20 21 20 19 18 16
4 3 3 3 3 5 1 2 4 4 5 10 11 10 15 17 18 16 15 14 15 18 24 20 15 12 10 5 3 7 11 16 19 18 18 18 18 20 20 20 21 20 19 18
4 5 4 4 3 3 5 5 6 7 11 9 13 15 17 18 19 18 18 19 18 19 24 18 15 11 10 5 3 5 9 12 15 15 16 17 18 18 19 19 16 16 16 15
Wind_Direction
215 240 203 223 176 280 152 162 153 140 129 170 200 245 295 322 359 339 330 319 284 260 255 214 203 196 196 203 205 210 211 210 206 213 216 212 221 215 213 215 220 214 223 227
221 212 209 168 208 305 175 162 168 146 159 117 136 289 334 322 291 234 230 273 249 267 267 253 233 217 208 201 210 212 211 211 209 209 217 217 221 219 220 212 213 213 225 228
204 147 149 134 272 248 176 158 142 131 138 95 135 283 320 278 283 282 229 232 237 241 220 232 226 222 231 230 220 218 220 216 220 220 217 212 216 215 216 209 216 218 222 221
95 136 132 174 238 176 116 153 119 124 111 85 6 131 245 209 244 247 263 230 230 236 237 245 227 217 224 228 230 236 230 228 228 228 228 223 213 202 218 219 216 212 215 220
6 134 132 186 7 200 124 113 106 90 73 139 340 3 278 132 239 241 236 249 237 214 218 228 229 232 227 235 236 237 236 234 229 232 232 233 218 219 221 219 218 203 191 187
63 297 15 357 333 103 97 88 66 65 73 266 168 171 241 186 206 242 234 226 228 228 221 236 244 245 242 242 241 237 242 239 232 236 232 232 228 225 220 212 198 198 199 197
34 4 345 31 51 50 106 102 93 72 94 233 181 159 258 267 266 228 235 221 221 227 222 226 239 244 245 242 237 234 232 236 238 236 237 238 242 240 226 213 206 202 195 187
44 15 3 343 61 110 37 132 106 132 173 171 94 231 266 315 309 335 192 303 275 264 250 244 243 248 245 243 239 228 223 224 222 225 235 238 236 231 220 200 185 197 201 212
115 44 322 29 35 25 331 37 44 113 36 73 198 295 307 340 29 41 49 53 46 32 17 335 313 257 242 239 237 228 218 211 215 218 220 219 209 193 176 170 176 195 212 213
130 77 346 339 52 329 65 146 328 32 130 184 330 308 251 309 212 47 52 33 14 6 10 352 342 326 259 242 234 223 220 219 220 222 220 209 198 193 181 162 161 159 169 195
108 83 284 354 17 94 354 27 44 79 68 138 130 272 246 290 299 245 319 346 340 338 336 322 326 355 257 232 232 214 210 213 208 204 196 189 183 179 172 166 167 173 173 213
2 107 75 110 293 275 63 121 115 112 220 72 130 278 323 335 125 130 313 11 7 355 333 327 337 352 14 281 208 201 206 210 207 195 189 186 185 184 183 180 171 184 212 222
86 25 66 359 358 348 30 22 96 89 58 204 110 271 337 61 59 49 291 307 321 313 318 326 338 337 327 276 223 218 216 215 209 202 198 198 201 193 200 201 186 193 198 200
92 95 142 170 185 136 134 234 122 93 91 182 224 280 329 10 338 318 285 305 319 286 273 280 286 275 281 260 235 222 218 215 210 204 202 202 204 200 214 202 187 185 206 218
80 77 58 71 63 107 131 195 165 155 184 166 244 218 264 294 272 254 247 289 300 284 276 259 265 285 282 265 245 231 225 216 211 206 205 205 201 200 199 195 203 225 221 218
22 82 74 26 23 246 284 267 238 203 202 252 247 281 247 278 251 270 267 273 262 270 290 278 270 256 256 252 247 240 228 218 212 211 211 209 202 194 200 209 201 200 205 215
64 110 53 317 336 326 346 248 222 256 209 195 225 244 355 287 271 266 264 236 244 276 291 292 284 287 284 276 264 247 237 219 212 213 213 207 202 203 203 193 192 199 207 215
112 90 84 210 11 26 250 299 238 221 255 214 290 288 286 260 275 279 272 271 276 266 277 290 296 294 295 297 277 261 241 217 213 211 211 205 205 200 192 193 198 202 209 215
71 115 79 105 172 284 318 16 90 63 284 199 251 292 283 309 312 296 229 228 245 256 265 267 279 285 286 285 283 263 233 215 210 210 209 204 202 198 196 198 201 206 210 218
58 68 106 108 112 239 255 341 107 93 309 329 309 315 316 351 335 264 264 254 276 273 273 280 286 286 283 282 287 248 225 210 206 212 209 204 203 203 202 203 202 207 215 237
74 32 141 159 247 287 264 308 190 112 262 332 359 332 329 316 268 292 305 284 267 275 278 283 285 288 291 295 284 242 222 208 218 211 208 204 204 204 205 203 206 210 213 245
164 142 181 114 160 278 7 5 163 266 290 303 319 313 315 307 308 313 319 313 305 289 289 283 280 286 298 305 285 248 221 231 218 209 202 201 202 203 201 201 202 206 210 219
198 179 181 181 216 217 301 134 147 262 291 316 322 317 320 303 305 304 300 308 308 303 287 282 272 283 286 307 289 245 232 222 205 197 196 195 195 199 199 196 198 199 209 221
251 153 176 55 222 250 286 277 56 7 343 332 324 325 317 307 303 297 303 304 302 304 284 273 268 270 274 283 288 248 207 193 185 182 184 188 191 193 197 199 202 206 212 221
198 121 167 264 256 305 148 58 14 348 333 328 318 309 311 310 304 302 294 293 294 296 296 255 244 252 257 254 242 166 164 169 166 170 180 186 190 197 197 203 207 215 230 236
186 178 165 224 195 193 267 347 339 343 321 302 316 311 312 307 301 297 290 287 290 289 290 235 227 235 245 218 211 172 162 168 169 170 177 188 192 201 206 207 213 228 240 245